When you browse on this site, cookies collect data to enhance your experience and personalize the content and advertising you see.
Visit our Privacy Policy to learn more. By continuing to use the site, you agree to this use of cookies and data.
  • In Lithuania
  • List of Countries
  • For 7 days
  • Water Temperature
  • Satellite Maps
  • Weather Map
  • Weather Widgets
  • user-avatar
    Login

    Hourly Weather Syargozero

    Today, 19 January, Saturday

    Time Temperature Precipitation Wind Pressure Humidity
    00:00 -16°C° 0 mm 3 mps 725 mmHg 95%
    01:00 -16°C° 0 mm 3 mps 725 mmHg 95%
    02:00 -16°C° 0 mm 3 mps 726 mmHg 95%
    03:00 -16°C° 0.1 mm 3 mps 726 mmHg 95%
    04:00 -16°C° 0.1 mm 3 mps 726 mmHg 95%
    05:00 -16°C° 0.1 mm 3 mps 726 mmHg 95%
    06:00 -15°C° 0.1 mm 3 mps 726 mmHg 94%
    07:00 -15°C° 0.1 mm 3 mps 727 mmHg 94%
    08:00 -15°C° 0.1 mm 3 mps 727 mmHg 94%
    09:00 -15°C° 0 mm 3 mps 727 mmHg 94%
    10:00 -15°C° 0 mm 3 mps 728 mmHg 93%
    11:00 -14°C° 0 mm 3 mps 728 mmHg 93%
    12:00 -14°C° 0 mm 3 mps 729 mmHg 92%
    13:00 -13°C° 0 mm 3 mps 729 mmHg 92%
    14:00 -13°C° 0 mm 3 mps 729 mmHg 91%
    15:00 -13°C° 0 mm 3 mps 730 mmHg 92%
    16:00 -14°C° 0 mm 3 mps 730 mmHg 92%
    17:00 -14°C° 0 mm 3 mps 730 mmHg 93%
    18:00 -15°C° 0 mm 3 mps 730 mmHg 93%
    19:00 -15°C° 0 mm 3 mps 730 mmHg 94%
    20:00 -16°C° 0 mm 3 mps 730 mmHg 94%
    21:00 -16°C° 0 mm 3 mps 730 mmHg 95%
    22:00 -16°C° 0 mm 2 mps 730 mmHg 96%
    23:00 -16°C° 0 mm 2 mps 730 mmHg 96%

    Tomorrow, 20 January, Sunday

    Time Temperature Precipitation Wind Pressure Humidity
    00:00 -16°C° 0 mm 2 mps 730 mmHg 97%
    01:00 -15°C° 0 mm 2 mps 730 mmHg 97%
    02:00 -13°C° 0 mm 1 mps 730 mmHg 97%
    03:00 -11°C° 0 mm 1 mps 730 mmHg 97%
    04:00 -10°C° 0 mm 1 mps 730 mmHg 97%
    05:00 -9°C° 0 mm 1 mps 729 mmHg 97%
    06:00 -10°C° 0 mm 2 mps 729 mmHg 97%
    07:00 -10°C° 0 mm 2 mps 728 mmHg 97%
    08:00 -10°C° 0 mm 2 mps 728 mmHg 97%
    09:00 -10°C° 0.4 mm 2 mps 727 mmHg 96%
    10:00 -9°C° 0.4 mm 2 mps 727 mmHg 96%
    11:00 -9°C° 0.4 mm 2 mps 726 mmHg 95%
    12:00 -9°C° 0.5 mm 2 mps 726 mmHg 96%
    13:00 -9°C° 0.5 mm 2 mps 726 mmHg 96%
    14:00 -9°C° 0.5 mm 2 mps 726 mmHg 97%
    15:00 -9°C° 0.4 mm 2 mps 726 mmHg 96%
    16:00 -12°C° 0.4 mm 3 mps 726 mmHg 96%
    17:00 -14°C° 0.4 mm 4 mps 726 mmHg 95%
    18:00 -14°C° 0.1 mm 4 mps 727 mmHg 95%
    19:00 -15°C° 0.1 mm 4 mps 727 mmHg 94%
    20:00 -15°C° 0.1 mm 3 mps 728 mmHg 94%
    21:00 -16°C° 0 mm 3 mps 728 mmHg 94%
    22:00 -17°C° 0 mm 3 mps 729 mmHg 95%
    23:00 -18°C° 0 mm 3 mps 729 mmHg 95%

    Day after tomorrow, 21 January, Monday

    Time Temperature Precipitation Wind Pressure Humidity
    00:00 -21°C° 0 mm 3 mps 730 mmHg 96%
    01:00 -20°C° 0 mm 2 mps 730 mmHg 97%
    02:00 -23°C° 0 mm 2 mps 731 mmHg 98%
    03:00 -24°C° 0 mm 2 mps 731 mmHg 98%
    04:00 -25°C° 0 mm 2 mps 731 mmHg 98%
    05:00 -26°C° 0 mm 2 mps 731 mmHg 98%
    06:00 -26°C° 0 mm 2 mps 732 mmHg 98%
    07:00 -26°C° 0 mm 2 mps 732 mmHg 97%
    08:00 -26°C° 0 mm 2 mps 732 mmHg 97%
    09:00 -24°C° 0 mm 2 mps 733 mmHg 97%
    10:00 -23°C° 0 mm 2 mps 733 mmHg 96%
    11:00 -21°C° 0 mm 2 mps 733 mmHg 96%
    12:00 -21°C° 0 mm 2 mps 733 mmHg 96%
    13:00 -20°C° 0 mm 2 mps 734 mmHg 95%
    14:00 -20°C° 0 mm 2 mps 734 mmHg 95%
    15:00 -20°C° 0 mm 2 mps 734 mmHg 95%
    16:00 -20°C° 0 mm 2 mps 735 mmHg 95%
    17:00 -20°C° 0 mm 2 mps 735 mmHg 96%
    18:00 -21°C° 0 mm 2 mps 735 mmHg 96%
    19:00 -21°C° 0 mm 2 mps 735 mmHg 97%
    20:00 -23°C° 0 mm 2 mps 736 mmHg 98%
    21:00 -21°C° 0 mm 2 mps 736 mmHg 98%
    22:00 -21°C° 0 mm 2 mps 736 mmHg 98%
    23:00 -19°C° 0 mm 1 mps 737 mmHg 98%

    22 January, Tuesday

    Time Temperature Precipitation Wind Pressure Humidity
    00:00 -19°C° 0 mm 1 mps 737 mmHg 99%
    01:00 -19°C° 0 mm 1 mps 737 mmHg 99%
    02:00 -19°C° 0 mm 1 mps 737 mmHg 99%
    03:00 -19°C° 0 mm 1 mps 737 mmHg 98%
    04:00 -18°C° 0 mm 1 mps 737 mmHg 98%
    05:00 -18°C° 0 mm 1 mps 737 mmHg 98%
    06:00 -18°C° 0 mm 1 mps 737 mmHg 98%
    07:00 -18°C° 0 mm 1 mps 737 mmHg 98%
    08:00 -18°C° 0 mm 1 mps 737 mmHg 97%
    09:00 -17°C° 0 mm 1 mps 737 mmHg 97%
    10:00 -17°C° 0 mm 1 mps 737 mmHg 97%
    11:00 -16°C° 0 mm 1 mps 737 mmHg 96%
    12:00 -16°C° 0 mm 1 mps 737 mmHg 96%
    13:00 -16°C° 0 mm 1 mps 737 mmHg 97%
    14:00 -16°C° 0 mm 1 mps 737 mmHg 97%
    15:00 -17°C° 0 mm 1 mps 737 mmHg 97%
    16:00 -18°C° 0 mm 1 mps 736 mmHg 98%
    17:00 -21°C° 0 mm 2 mps 736 mmHg 98%
    18:00 -23°C° 0 mm 2 mps 736 mmHg 98%
    19:00 -23°C° 0 mm 2 mps 736 mmHg 98%
    20:00 -23°C° 0 mm 2 mps 736 mmHg 98%
    21:00 -23°C° 0 mm 2 mps 736 mmHg 98%
    22:00 -23°C° 0 mm 2 mps 735 mmHg 98%
    23:00 -23°C° 0 mm 2 mps 735 mmHg 98%

    23 January, Wednesday

    Time Temperature Precipitation Wind Pressure Humidity
    00:00 -23°C° 0 mm 3 mps 735 mmHg 96%
    01:00 -22°C° 0 mm 3 mps 735 mmHg 95%
    02:00 -21°C° 0 mm 3 mps 735 mmHg 94%
    03:00 -21°C° 0 mm 3 mps 735 mmHg 93%
    04:00 -19°C° 0 mm 3 mps 735 mmHg 92%
    05:00 -19°C° 0 mm 3 mps 734 mmHg 90%
    06:00 -19°C° 0.1 mm 3 mps 735 mmHg 91%
    07:00 -19°C° 0.1 mm 3 mps 735 mmHg 92%
    08:00 -19°C° 0.1 mm 3 mps 735 mmHg 93%
    09:00 -18°C° 0 mm 3 mps 735 mmHg 93%
    10:00 -18°C° 0 mm 3 mps 735 mmHg 93%
    11:00 -18°C° 0 mm 3 mps 735 mmHg 93%
    12:00 -17°C° 0 mm 2 mps 736 mmHg 93%
    13:00 -16°C° 0 mm 2 mps 736 mmHg 93%
    14:00 -16°C° 0 mm 2 mps 736 mmHg 93%
    15:00 -17°C° 0 mm 2 mps 736 mmHg 95%
    16:00 -18°C° 0 mm 2 mps 737 mmHg 96%
    17:00 -19°C° 0 mm 2 mps 737 mmHg 98%
    18:00 -21°C° 0 mm 2 mps 738 mmHg 98%
    19:00 -23°C° 0 mm 2 mps 738 mmHg 98%
    20:00 -22°C° 0 mm 1 mps 738 mmHg 99%
    21:00 -22°C° 0 mm 1 mps 739 mmHg 98%
    22:00 -22°C° 0 mm 1 mps 739 mmHg 97%
    23:00 -22°C° 0 mm 1 mps 740 mmHg 96%

    24 January, Thursday

    Time Temperature Precipitation Wind Pressure Humidity
    00:00 -22°C° 0 mm 1 mps 740 mmHg 96%
    01:00 -22°C° 0 mm 1 mps 741 mmHg 95%
    02:00 -22°C° 0 mm 1 mps 741 mmHg 95%
    03:00 -21°C° 0 mm 1 mps 742 mmHg 96%
    04:00 -21°C° 0 mm 1 mps 742 mmHg 97%
    05:00 -21°C° 0 mm 1 mps 742 mmHg 98%
    06:00 -21°C° 0 mm 1 mps 743 mmHg 98%
    07:00 -21°C° 0 mm 1 mps 743 mmHg 98%
    08:00 -21°C° 0 mm 1 mps 744 mmHg 98%
    09:00 -20°C° 0 mm 1 mps 744 mmHg 96%
    10:00 -18°C° 0 mm 1 mps 745 mmHg 95%
    11:00 -17°C° 0 mm 1 mps 745 mmHg 93%
    12:00 -17°C° 0 mm 1 mps 746 mmHg 93%
    13:00 -16°C° 0 mm 1 mps 746 mmHg 92%
    14:00 -16°C° 0 mm 1 mps 746 mmHg 92%
    15:00 -17°C° 0 mm 0 mps 746 mmHg 92%
    16:00 -19°C° 0 mm 0 mps 747 mmHg 93%
    17:00 -20°C° 0 mm 0 mps 747 mmHg 93%
    18:00 -20°C° 0 mm 0 mps 747 mmHg 92%
    19:00 -20°C° 0 mm 0 mps 748 mmHg 92%
    20:00 -20°C° 0 mm 0 mps 748 mmHg 92%
    21:00 -21°C° 0 mm 0 mps 748 mmHg 92%
    22:00 -21°C° 0 mm 0 mps 749 mmHg 92%
    23:00 -21°C° 0 mm 0 mps 749 mmHg 92%
    Show more